Location: Clayton (historical)
(34.0300°N, 118.0259°W)
Time: 09:54:02
(UTC+00:00)

Hubble Space Telescope - Pass Details

Date: 24 January 2021
Orbit: 536 x 539 km, 28.5° (Epoch: 28 February)

Event Time Altitude Azimuth Distance (km) Brightness Sun altitude
Rises 03:03:50 0° 263° (W) 2,675 5.8 -22.7°
Reaches altitude 10° 03:06:18 10° 252° (WSW) 1,784 4.5 -23.2°
Maximum altitude 03:09:53 29° 192° (SSW) 998 2.2 -23.9°
Enters shadow 03:10:17 28° 181° (S) 1,011 2.2 -24.0°
